Location: Bakhuizen
(52.8696°N, 5.4575°E)
Time: 18:44:47
(UTC+00:00)

Cosmos 2074 Rocket - Pass Details

Date: 11 May 2021
Orbit: 967 x 986 km, 82.9° (Epoch: 21 June)

Event Time Altitude Azimuth Distance (km) Brightness Sun altitude
Rises 21:07:52 0° 348° (NNW) 3,707 8.4 -12.3°
Reaches altitude 10° 21:10:24 10° 348° (NNW) 2,756 7.5 -12.5°
Maximum altitude 21:16:44 83° 263° (W) 1,002 4.1 -13.0°
Enters shadow 21:22:15 14° 176° (S) 2,453 5.6 -13.5°
